VK8HF Weather Reports


time (UTC)temp
F
wind
direction
speed
knots
gust
knots
rain 1hr
in
rain 24hr
in
rain mn
in
humidity
%
barometer
mb
20260506091534 82 241 0.0 0.0 0.00 0.00 0.00 71 1010.8
20260506090039 84 241 0.0 0.0 0.00 0.00 0.00 66 1010.6
20260506084634 86 241 0.0 0.9 0.00 0.00 0.00 61 1010.6
20260506083035 87 194 0.0 2.6 0.00 0.00 0.00 58 1010.5
20260506081534 87 217 1.7 6.1 0.00 0.00 0.00 55 1010.3
20260506073033 88 221 0.0 4.3 0.00 0.00 0.00 56 1010.0
20260506071532 90 249 2.6 7.8 0.00 0.00 0.00 53 1009.8
20260506061532 91 184 0.9 7.0 0.00 0.00 0.00 51 1009.6
20260506044618 90 190 2.6 7.8 0.00 0.00 0.00 53 1010.2
20260506043017 89 263 3.5 7.8 0.00 0.00 0.00 54 1010.4
20260506041514 89 224 2.6 8.7 0.00 0.00 0.00 55 1010.7
20260506040012 89 201 1.7 8.7 0.00 0.00 0.00 56 1010.8
20260506034618 89 223 1.7 7.0 0.00 0.00 0.00 57 1011.0
20260506033010 89 161 2.6 9.6 0.00 0.00 0.00 55 1011.3
20260506031506 88 191 4.3 7.8 0.00 0.00 0.00 54 1011.5
20260506030004 88 243 0.9 7.0 0.00 0.00 0.00 57 1011.7
20260506024602 87 231 2.6 7.0 0.00 0.00 0.00 58 1011.9
20260506023105 87 241 3.5 10.4 0.00 0.00 0.00 57 1012.2
20260506021556 87 195 3.5 10.4 0.00 0.00 0.00 59 1012.4
20260506020057 86 230 3.5 12.2 0.00 0.00 0.00 60 1012.5
20260506014552 86 205 4.3 11.3 0.00 0.00 0.00 60 1012.6
20260506013102 86 237 5.2 9.6 0.00 0.00 0.00 60 1012.7
20260506011545 84 254 4.3 10.4 0.00 0.00 0.00 61 1012.8
20260506010054 84 209 4.3 13.0 0.00 0.00 0.00 62 1013.0
20260506004540 83 260 5.2 11.3 0.00 0.00 0.00 65 1013.1
20260506003039 83 235 1.7 8.7 0.00 0.00 0.00 66 1013.2
20260506001535 82 263 1.7 8.7 0.00 0.00 0.00 68 1013.2
20260506000034 81 247 3.5 9.6 0.00 0.00 0.00 68 1013.4
20260505234534 81 234 2.6 7.0 0.00 0.00 0.00 70 1013.4
20260505233028 80 233 2.6 6.1 0.00 0.00 0.00 71 1013.3
20260505231526 80 263 1.7 6.1 0.00 0.00 0.00 74 1013.3
20260505230031 78 258 1.7 6.1 0.00 0.00 0.00 75 1013.2
20260505224518 78 212 0.0 4.3 0.00 0.00 0.00 77 1012.9
20260505223020 77 225 0.9 4.3 0.00 0.00 0.00 78 1012.8
20260505221519 76 199 0.0 1.7 0.00 0.00 0.00 79 1012.7
20260505220022 74 256 0.0 0.0 0.00 0.00 0.00 78 1012.5
20260505214518 73 256 0.0 0.0 0.00 0.00 0.00 78 1012.4
20260505213024 73 256 0.0 0.0 0.00 0.00 0.00 78 1012.3
20260505211521 73 256 0.0 0.0 0.00 0.00 0.00 79 1012.0
20260505210017 74 256 0.0 0.0 0.00 0.00 0.00 79 1011.7
20260505204514 74 256 0.0 0.9 0.00 0.00 0.00 80 1011.5
20260505203023 74 256 0.0 0.9 0.00 0.00 0.00 80 1011.3
20260505201511 74 268 0.0 0.9 0.00 0.00 0.00 80 1011.1
20260505200010 75 232 0.0 0.9 0.00 0.00 0.00 80 1011.0
20260505194509 75 232 0.0 0.0 0.00 0.00 0.00 80 1010.9
20260505193009 75 232 0.0 0.9 0.00 0.00 0.00 80 1011.0
20260505191507 75 229 0.0 1.7 0.00 0.00 0.00 80 1010.8
20260505190006 75 224 0.0 0.9 0.00 0.00 0.00 80 1010.8
20260505184506 75 213 0.0 1.7 0.00 0.00 0.00 80 1010.8
20260505183005 75 248 0.0 0.9 0.00 0.00 0.00 80 1010.9
20260505181503 76 248 0.0 0.0 0.00 0.00 0.00 80 1010.9
20260505180001 76 248 0.0 0.0 0.00 0.00 0.00 80 1011.1
20260505174600 77 248 0.0 0.0 0.00 0.00 0.00 79 1011.1
20260505173002 77 231 0.0 1.7 0.00 0.00 0.00 79 1011.1
20260505171502 77 223 0.0 0.0 0.00 0.00 0.00 79 1011.2
20260505170003 77 278 0.0 0.0 0.00 0.00 0.00 79 1011.3
20260505164601 77 278 0.0 0.0 0.00 0.00 0.00 79 1011.4
20260505163058 78 279 0.0 2.6 0.00 0.00 0.00 79 1011.3
20260505161621 78 276 0.0 3.5 0.00 0.00 0.00 78 1011.4
20260505153100 79 274 0.0 1.7 0.00 0.00 0.00 72 1011.7
20260505151618 79 275 0.0 3.5 0.00 0.00 0.00 72 1011.8
20260505124508 78 104 0.0 0.0 0.00 0.00 0.00 76 1011.6
20260505123051 78 104 0.0 0.0 0.00 0.00 0.00 77 1011.7
20260505121550 79 104 0.0 0.0 0.00 0.00 0.00 79 1011.7
20260505120105 79 104 0.0 0.0 0.00 0.00 0.00 80 1011.7
20260505114547 79 104 0.0 0.0 0.00 0.00 0.00 80 1011.5
20260505113048 80 104 0.0 0.0 0.00 0.00 0.00 79 1011.5
20260505111545 80 104 0.0 0.0 0.00 0.00 0.00 79 1011.4
20260505101541 81 104 0.0 0.9 0.00 0.00 0.00 77 1010.8
20260505100042 82 161 0.0 0.0 0.00 0.00 0.00 76 1010.7
20260505094540 82 191 0.0 1.7 0.00 0.00 0.00 75 1010.6
20260505093042 83 184 0.0 0.9 0.00 0.00 0.00 74 1010.4